Location: Góry Miechowskie
(50.3599°N, 20.1803°E)
Time: 00:54:48
(UTC+00:00)

S-56A Canister/Altair - Pass Details

Date: 15 September 2024
Orbit: 636 x 2487 km, 38.9° (Epoch: 15 October)

Event Time Altitude Azimuth Distance (km) Brightness Sun altitude
Rises 00:11:58 0° 268° (W) 4,812 - -32.8°
Reaches altitude 10° 00:17:15 10° 244° (WSW) 4,219 - -32.3°
Maximum altitude 00:22:07 14° 219° (SW) 4,228 - -31.9°
Drops below altitude 10° 00:27:34 10° 195° (SSW) 4,805 - -31.5°
Sets 00:34:38 0° 173° (S) 6,053 - -30.8°
